Location: Cosy Dell
(34.2789°N, 117.4537°W)
Time: 20:57:29
(UTC+00:00)

SPOT 3 Rocket - Pass Details

Date: 14 July 2020
Orbit: 778 x 795 km, 98.8° (Epoch: 13 August)

Event Time Altitude Azimuth Distance (km) Brightness Sun altitude
Exits shadow 03:32:31 - 139° (SE) 2,714 5.7 -6.2°
Reaches altitude 10° 03:33:31 10° 135° (SE) 2,353 5.4 -6.3°
Maximum altitude 03:38:13 36° 70° (ENE) 1,244 4.3 -7.2°
Drops below altitude 10° 03:42:57 10° 6° (N) 2,369 6.4 -8.0°
Sets 03:45:26 0° 358° (N) 3,302 7.3 -8.4°
